STARLINK-32843, 62814

Orbit data source: Space-Track

STARLINK-32843, 62814 is a payload satellite owned by SpaceX/Seattle (US) in LEO that was launched on Fri, 24 Jan 2025 UTC via an FALCON 9 launch vehicle from the Air Force Western Test Range (AFWTR). Payload-class satellites include a variety of spacecraft equipped with specific instruments for various scientific and technological missions. These include communications satellites like Starlink; space stations such as the ISS; scientific satellites like the Hubble; Earth observation satellites from companies like Planet Labs, Umbra, and HawkEye 360; GPS; miniature CubeSats for education and research; and military/defense satellites.

Loading next visibility...
Identifier
62814, 2025-018J
Orbit
LEO
Country
Flag of USUS
Related business
Manufacturer
SpaceX/Seattle
Mission
Operational Commercial Communications
Bus & Motor
STARLINK V2M, Unknown motor
Mass
730 kg wet, ~700 kg dry
Launch date (UTC)
2025-01-24 (1 year ago)
Launch vehicle
FALCON 9
Launch site
Air Force Western Test Range (AFWTR)
Object type
Payload
Rocket body
Debris
Shape & HBR
Box + 2 Pan, 17.7 m
Radar Cross Section
33.884 m², Large (>1 m²)

Expand to show TLE details & history
Last TLE update: 10 hours ago

TLE from 10 hours ago
0 STARLINK-32843
1 62814U 25018J   26120.58335648 -.00004198  00000-0 -12358-3 0  9996
2 62814  53.1605  68.6450 0001279  88.3919 222.5431 15.31701454  5813
Epoch: 2026-04-30T14:00Z
TLE epoch observation values (Epoch: 2026-04-30T14:00:01.999Z)
Latitude
-37.41421°
Longitude
-34.63543°
Altitude
483.488 km
Speed
7.623 km/s
True Right ascension
02h 15m 36s
True Declination
-37° 14' 30"
Sunlit
Object was in daylight at epoch
Visualization orbit readout
Latitude
Unknown
Longitude
Unknown
Altitude
Unknown
Speed
Unknown
Apparent Right ascension
Unknown
Apparent Declination
Unknown
Sunlit
N/A
Visualization observer readout
Local Sidereal Time
07:36:57
Azimuth
Unknown
Elevation
Unknown
Doppler factor
Unknown
Orbital elements
Apogee altitude
471.868 km
Perigee altitude
470.116 km
Semi-major axis
6,849.129 km
Eccentricity
0.00013
Inclination
53.1605°
RAAN
68.645°
Arg. of periapsis
88.3919°
True anomaly
222.53319°
Mean anomaly
222.5431°
Eccentric anomaly
222.53815°
Mean motion
3.82904 °/min
Orbital period
94.02 mins
BSTAR
-0.00012358
Loading maneuver chart data...
Computing Atmospheric mass density...
Loading historical data...
Loading historical data...
Loading historical data...
Loading historical data...
Loading historical data...
Loading historical data...
Loading historical data...

Documentation

Showing up to 5 results
|